Flag for Australia Weather past 2 weeks in Mudgee, New South Wales, Australia

Now
69 °F

Mild.


Feels Like: 69 °F
Forecast: 51 / 72 °F
Wind: 8 mph from Northeast

Location: Mudgee Aws

Current Time: May 4, 2015 at 6:23:09 PM

Latest Report: May 4, 2015 at 5:00 PM


Visibility: N/A

Pressure: 29.96 "Hg

Humidity: 64%

Dew point: 56 °F

Location of MudgeeLocation

Historic Weather in Mudgee — Graph

°F

Mudgee temperature yesterday

Maximum temperature yesterday: 71 °F (at 12:00 PM)
Minimum temperature yesterday: 58 °F (at 5:00 AM)
Average temperature yesterday: 65 °F

Past Weeks' High & Low Weather Summary

 TemperatureHumidityPressure
High72 °F (May 4, 3:00 PM)99% (Apr 24, 3:00 AM)30.40 "Hg (Apr 24, 3:00 AM)
Low38 °F (Apr 28, 3:00 AM)40% (Apr 28, 12:00 PM)29.69 "Hg (Apr 25, 3:00 PM)
Average58 °F78%30.05 "Hg
* Reported Apr 19 5:00 PM — May 4 5:00 PM, Mudgee, Weather by CustomWeather, © 2015

Note: Actual official high and low records may vary slightly from our data, if they occured in-between our weather recording intervals... More about our weather records

Advertising

Mudgee weather history for previous 24 hours

 ConditionsComfort  
Time TempWeatherWind HumidityBarometerVisibility
5:00 PM
Mon, May 4
69 °FMild.8 mph64%29.96 "HgN/A
3:00 PM72 °FPassing clouds.6 mph57%29.96 "HgN/A
2:00 PM71 °FMild.5 mph60%29.96 "HgN/A
12:00 PM67 °FPartly sunny.3 mph67%30.01 "HgN/A
11:00 AM67 °FMild.5 mph72%30.04 "HgN/A
9:00 AM64 °FOvercast.8 mph79%30.05 "HgN/A
8:00 AM59 °FCool.3 mph98%30.05 "HgN/A
6:00 AM56 °FCool.1 mph98%30.01 "HgN/A
5:00 AM59 °FCool.3 mph98%30.00 "HgN/A
3:00 AM62 °FOvercast.6 mph98%29.99 "HgN/A
2:00 AM60 °FCool.5 mph98%30.00 "HgN/A
12:00 AM61 °FOvercast.No wind98%30.01 "HgN/A
11:00 PM
Sun, May 3
61 °FCool.No wind97%30.01 "HgN/A
9:00 PM65 °FOvercast.3 mph86%30.01 "HgN/A
8:00 PM65 °FMild.2 mph89%30.01 "HgN/A
6:00 PM66 °FOvercast.No wind78%29.96 "HgN/A
Weather by CustomWeather, © 2015

See weather overviewHow to use our weather pages